User: anonymous   Login
Location: *
(13.2257°S, 48.7193°W)
Time: 09:55:02
(UTC+00:00)
Language:

ARIANE 5 DEB (SYLDA) - Orbit

View from above orbital plane
View from above orbital plane
View from above satellite
View from above satellite

Ground track
Ground track

The orbit is defined by the following mean orbital elements,

1 27717U          26106.72610647 +.00000000 +00000-0 -42219-2 0 00006
2 27717   1.8009 275.7130 7084415 304.8699 325.1370  2.22468914    06
Epoch (UTC): 16 April 2026 17:25:35
Eccentricity: 0.7084415
inclination: 1.8009°
perigee height: 849 km
apogee height: 35969 km
right ascension of ascending node: 275.7130°
argument of perigee: 304.8699°
revolutions per day: 2.22468914
mean anomaly at epoch: 325.1370°

The dashed part of the orbit path shows where the satellite is in the earth's shadow,  

DLR